User: anonymous   Login
Location: Hartman Creek State Park
(44.3257°N, 89.2134°W)
Time: 12:23:52
(UTC-05:00)
Language:

Cosmos 2263 Rocket - Orbit

View from above orbital plane
View from above orbital plane
View from above satellite
View from above satellite

Ground track
Ground track

The orbit data is extracted from the following two-line orbital elements,

1 22803U 93059B   16269.45882983  .00000248  00000-0  14768-3 0  9995
2 22803  70.9886  87.2717 0015222  65.7180 294.5532 14.16753306190787
Epoch (UTC): 25 September 2016 11:00:42
Eccentricity: 0.0015222
inclination: 70.9886°
perigee height: 825 km
apogee height: 847 km
right ascension of ascending node: 87.2717°
argument of perigee: 65.7180°
revolutions per day: 14.16753306
mean anomaly at epoch: 294.5532°
orbit number at epoch: 19078

The dashed part of the orbit path shows where the satellite is in the earth's shadow,  

DLR